Year,Month,Day,Hour,Minute,Value (Times are PST for temperature in C)
2023,03,28,00,04,4.60
2023,03,28,00,09,4.60
2023,03,28,00,14,4.70
2023,03,28,00,19,4.60
2023,03,28,00,24,4.60
2023,03,28,00,29,4.70
2023,03,28,00,34,4.60
2023,03,28,00,39,4.70
2023,03,28,00,44,4.70
2023,03,28,00,49,4.70
2023,03,28,00,54,4.80
2023,03,28,00,59,5.00
2023,03,28,01,04,5.10
2023,03,28,01,09,5.10
2023,03,28,01,14,5.10
2023,03,28,01,19,5.00
2023,03,28,01,24,5.10
2023,03,28,01,29,5.10
2023,03,28,01,34,5.20
2023,03,28,01,39,5.00
2023,03,28,01,44,5.00
2023,03,28,01,49,4.90
2023,03,28,01,54,4.90
2023,03,28,01,59,4.90
2023,03,28,02,04,4.90
2023,03,28,02,09,5.00
2023,03,28,02,14,5.00
2023,03,28,02,19,5.20
2023,03,28,02,24,5.20
2023,03,28,02,29,5.20
2023,03,28,02,34,5.30
2023,03,28,02,39,5.70
2023,03,28,02,44,5.80
2023,03,28,02,49,5.80
2023,03,28,02,54,5.80
2023,03,28,02,59,5.90
2023,03,28,03,04,5.90
2023,03,28,03,09,5.90
2023,03,28,03,14,6.00
2023,03,28,03,19,6.20
2023,03,28,03,24,6.20
2023,03,28,03,29,6.30
2023,03,28,03,34,6.30
2023,03,28,03,39,6.30
2023,03,28,03,44,6.40
2023,03,28,03,49,6.40
2023,03,28,03,54,6.40
2023,03,28,03,59,6.40
2023,03,28,04,04,6.50
2023,03,28,04,09,6.50
2023,03,28,04,14,6.50
2023,03,28,04,19,6.50
2023,03,28,04,24,6.50
2023,03,28,04,29,6.60
2023,03,28,04,34,6.60
2023,03,28,04,39,6.60
2023,03,28,04,44,6.60
2023,03,28,04,49,6.50
2023,03,28,04,54,6.50
2023,03,28,04,59,6.50
2023,03,28,05,04,6.40
2023,03,28,05,09,6.40
2023,03,28,05,14,6.50
2023,03,28,05,19,6.40
2023,03,28,05,24,6.40
2023,03,28,05,29,6.40
2023,03,28,05,34,6.40
2023,03,28,05,39,6.50
2023,03,28,05,44,6.50
2023,03,28,05,49,6.50
2023,03,28,05,54,6.50
2023,03,28,05,59,6.40
2023,03,28,06,04,6.40
2023,03,28,06,09,6.40
2023,03,28,06,19,6.30
2023,03,28,06,29,6.20
2023,03,28,06,34,6.20
2023,03,28,06,39,6.20
2023,03,28,06,44,6.20
2023,03,28,06,49,6.20
2023,03,28,06,54,6.20
2023,03,28,06,59,6.30
2023,03,28,07,04,6.30
2023,03,28,07,09,6.40
2023,03,28,07,14,6.50
2023,03,28,07,19,6.60
2023,03,28,07,24,6.70
2023,03,28,07,29,6.80
2023,03,28,07,34,6.90
2023,03,28,07,39,6.90
2023,03,28,07,44,7.20
2023,03,28,07,49,7.30
2023,03,28,07,54,7.20
2023,03,28,07,59,7.20
2023,03,28,08,04,7.40
2023,03,28,08,09,7.70
2023,03,28,08,14,7.90
2023,03,28,08,19,8.00
2023,03,28,08,24,8.20
2023,03,28,08,29,8.30
2023,03,28,08,34,8.50
2023,03,28,08,39,8.80
2023,03,28,08,44,9.10
2023,03,28,08,49,9.40
2023,03,28,08,54,9.50
2023,03,28,08,59,9.70
2023,03,28,09,04,10.00
2023,03,28,09,09,10.00
2023,03,28,09,14,9.90
2023,03,28,09,19,10.10
2023,03,28,09,24,9.90
2023,03,28,09,29,10.20
2023,03,28,09,34,10.50
2023,03,28,09,39,10.70
2023,03,28,09,44,10.80
2023,03,28,09,49,10.80
2023,03,28,09,54,11.10
2023,03,28,09,59,11.00
2023,03,28,10,04,11.00
2023,03,28,10,09,11.30
2023,03,28,10,14,11.50
2023,03,28,10,19,11.50
2023,03,28,10,24,11.80
2023,03,28,10,29,11.90
2023,03,28,10,34,12.00
2023,03,28,10,39,12.10
2023,03,28,10,44,12.10
2023,03,28,10,49,12.00
2023,03,28,10,54,12.40
2023,03,28,10,59,12.20
2023,03,28,11,04,12.30
2023,03,28,11,09,12.20
2023,03,28,11,14,12.30
2023,03,28,11,19,12.50
2023,03,28,11,24,12.30
2023,03,28,11,29,12.70
2023,03,28,11,34,12.60
2023,03,28,11,39,12.50
2023,03,28,11,44,12.80
2023,03,28,11,49,12.30
2023,03,28,11,54,12.50
2023,03,28,11,59,12.40
2023,03,28,12,04,12.60
2023,03,28,12,09,12.70
2023,03,28,12,14,12.60
2023,03,28,12,19,12.70
2023,03,28,12,24,12.80
2023,03,28,12,29,12.50
2023,03,28,12,34,12.80
2023,03,28,12,39,12.60
2023,03,28,12,44,12.90
2023,03,28,12,49,12.80
2023,03,28,12,54,12.90
2023,03,28,12,59,12.90
2023,03,28,13,04,12.80
2023,03,28,13,09,13.10
2023,03,28,13,14,12.70
2023,03,28,13,19,12.60
2023,03,28,13,24,12.60
2023,03,28,13,29,12.60
2023,03,28,13,34,12.30
2023,03,28,13,39,12.20
2023,03,28,13,44,12.40
2023,03,28,13,49,12.90
2023,03,28,13,54,12.80
2023,03,28,13,59,13.90
2023,03,28,14,04,13.30
2023,03,28,14,09,12.80
2023,03,28,14,14,13.30
2023,03,28,14,19,14.30
2023,03,28,14,24,13.70
2023,03,28,14,29,13.60
2023,03,28,14,34,13.30
2023,03,28,14,39,12.80
2023,03,28,14,44,12.30
2023,03,28,14,49,12.70
2023,03,28,14,54,12.90
2023,03,28,14,59,12.80
2023,03,28,15,04,12.80
2023,03,28,15,09,12.90
2023,03,28,15,14,12.60
2023,03,28,15,19,12.80
2023,03,28,15,24,12.40
2023,03,28,15,29,12.20
2023,03,28,15,34,12.30
2023,03,28,15,39,12.40
2023,03,28,15,44,12.40
2023,03,28,15,49,12.30
2023,03,28,15,54,12.30
2023,03,28,15,59,12.30
2023,03,28,16,04,12.20
2023,03,28,16,09,12.10
2023,03,28,16,14,12.10
2023,03,28,16,19,12.00
2023,03,28,16,24,12.00
2023,03,28,16,29,11.90
2023,03,28,16,34,11.80
2023,03,28,16,39,11.70
2023,03,28,16,44,11.70
2023,03,28,16,49,11.70
2023,03,28,16,54,11.70
2023,03,28,16,59,11.60
2023,03,28,17,04,11.60
2023,03,28,17,09,11.60
2023,03,28,17,14,11.50
2023,03,28,17,19,11.40
2023,03,28,17,24,11.30
2023,03,28,17,29,11.30
2023,03,28,17,34,11.20
2023,03,28,17,39,11.10
2023,03,28,17,44,11.00
2023,03,28,17,49,11.00
2023,03,28,17,54,10.90
2023,03,28,17,59,10.80
2023,03,28,18,04,10.70
2023,03,28,18,09,10.70
2023,03,28,18,14,10.70
2023,03,28,18,19,10.60
2023,03,28,18,24,10.60
2023,03,28,18,29,10.60
2023,03,28,18,34,10.60
2023,03,28,18,39,10.50
2023,03,28,18,44,10.50
2023,03,28,18,49,10.50
2023,03,28,18,54,10.40
2023,03,28,18,59,10.40
2023,03,28,19,04,10.20
2023,03,28,19,09,10.20
2023,03,28,19,14,10.10
2023,03,28,19,19,10.00
2023,03,28,19,24,10.00
2023,03,28,19,29,10.00
2023,03,28,19,34,10.00
2023,03,28,19,39,9.90
2023,03,28,19,44,9.80
2023,03,28,19,49,9.70
2023,03,28,19,54,9.50
2023,03,28,19,59,9.50
2023,03,28,20,04,9.40
2023,03,28,20,09,9.20
2023,03,28,20,14,9.20
2023,03,28,20,19,9.10
2023,03,28,20,24,9.00
2023,03,28,20,29,9.00
2023,03,28,20,34,8.90
2023,03,28,20,39,8.90
2023,03,28,20,44,8.80
2023,03,28,20,49,8.80
2023,03,28,20,54,8.80
2023,03,28,20,59,9.00
2023,03,28,21,04,8.90
2023,03,28,21,09,8.90
2023,03,28,21,14,8.90
2023,03,28,21,19,8.90
2023,03,28,21,24,8.90
2023,03,28,21,29,9.00
2023,03,28,21,34,9.00
2023,03,28,21,39,9.00
2023,03,28,21,44,8.70
2023,03,28,21,49,8.80
2023,03,28,21,54,8.70
2023,03,28,21,59,8.60
2023,03,28,22,04,8.50
2023,03,28,22,09,8.60
2023,03,28,22,14,8.40
2023,03,28,22,19,8.50
2023,03,28,22,24,8.10
2023,03,28,22,29,7.90
2023,03,28,22,34,8.00
2023,03,28,22,39,8.00
2023,03,28,22,44,8.00
2023,03,28,22,49,8.00
2023,03,28,22,54,8.10
2023,03,28,22,59,8.10
2023,03,28,23,04,8.20
2023,03,28,23,09,8.10
2023,03,28,23,14,8.10
2023,03,28,23,19,8.00
2023,03,28,23,24,8.10
2023,03,28,23,29,8.10
2023,03,28,23,34,8.10
2023,03,28,23,39,8.20
2023,03,28,23,44,8.20
2023,03,28,23,49,8.30
2023,03,28,23,54,8.30
2023,03,28,23,59,8.30
